Location: Maddington
(51.2000°N, 1.9167°W)
Time: 11:47:23
(UTC+00:00)

Abrixas rocket - Pass Details

Date: 18 September 2020
Orbit: 329 x 336 km, 48.4° (Epoch: 22 October)

Event Time Altitude Azimuth Distance (km) Brightness Sun altitude
Rises 19:31:37 0° 252° (WSW) 2,095 6.7 -12.7°
Reaches altitude 10° 19:33:39 10° 245° (WSW) 1,258 5.4 -13.0°
Maximum altitude 19:36:20 42° 172° (S) 481 2.3 -13.4°
Enters shadow 19:37:11 31° 126° (SE) 604 2.5 -13.5°
